Location: Worth Mountain WMA
(34.9569°N, 81.4819°W)
Time: 17:19:44
(UTC-05:00)

Daily predictions for brighter satellites

Satellite Brightness Start Highest point End
(mag) Time Altitude Azimuth Time Altitude Azimuth Time Altitude Azimuth
Aureole 1 Rocket 4.5 17:28:42 10° NNW 17:35:11 89° WSW 17:43:16 10° SSE
Cosmos 1428 Rocket 4.5 17:32:45 10° N 17:38:55 75° E 17:45:01 10° S
Cosmos 1125 Rocket 3.8 17:34:06 10° S 17:39:11 49° ESE 17:44:16 10° NNE
USA 238 DEB 4.1 17:32:59 10° NNW 17:39:49 47° NE 17:46:42 10° SE
USA 238 4.1 17:33:06 10° NNW 17:39:55 46° NE 17:46:47 10° SE
Atlas Centaur 2 2.9 17:38:11 10° W 17:43:56 47° SSW 17:48:29 10° ESE
Cosmos 2297 Rocket 2.7 17:40:11 10° N 17:45:21 36° ENE 17:50:31 10° SE
Cosmos 1484 Rocket 2.9 17:42:01 10° SSE 17:45:58 61° ENE 17:49:56 10° N
Cosmos 1656 3.8 17:42:12 10° S 17:47:38 56° ESE 17:53:02 10° NNE
Cosmos 389 Rocket 2.5 17:45:07 10° N 17:48:35 80° W 17:52:00 10° S
COSMO-SKYMED 1 3.6 17:47:07 10° NE 17:50:50 28° E 17:54:33 10° SSE
Cosmos 1666 2.6 17:47:25 10° N 17:51:09 70° E 17:54:52 10° SSE
SJ 16-02 1.4 17:47:21 10° S 17:51:38 59° ESE 17:55:59 10° NNE
CZ-2C R/B 4.0 17:47:36 10° NNE 17:52:13 54° E 17:56:51 10° S
Cosmos 2279 Rocket 4.5 17:46:29 10° SSW 17:52:41 67° W 17:58:56 10° N
Cosmos 372 Rocket 4.0 17:50:35 10° S 17:55:45 68° ESE 18:00:54 10° NNE
SMAP 3.0 17:56:29 10° SSE 18:01:08 84° ENE 18:05:47 10° N
Meteor 2-4 Rocket 3.6 18:00:15 10° S 18:05:43 81° E 18:11:06 10° N
GOES 2 Rocket 4.3 18:01:52 10° WSW 18:05:47 36° S 18:10:18 10° ESE
CSL-04 Debris 4.3 18:01:47 10° SSE 18:07:10 82° WSW 18:12:35 10° NNW
RESURS DK-1 4.1 18:05:09 10° SE 18:07:21 14° ESE 18:08:21 13° E
NOSS 3-2 (A) 4.3 18:01:27 10° NNW 18:08:42 45° NE 18:16:29 10° ESE
MTI 4.0 18:08:31 10° NNE 18:11:41 48° E 18:14:48 10° S
ALOS 3.0 18:11:18 10° SE 18:15:22 31° ENE 18:19:28 10° N
DELTA 2 R/B (1) 3.9 18:10:29 10° WNW 18:15:55 53° N 18:20:00 18° ENE
Cosmos 1025 Rocket 3.6 18:12:07 10° SSE 18:16:02 35° E 18:19:56 10° NNE
NOSS 3-2 (C) 4.5 18:09:14 10° NNW 18:16:17 39° NE 18:23:51 10° ESE
BREEZE-M DEB (TANK) 3.0 18:13:17 10° NW 18:16:25 69° NE 18:27:04 10° SE
Cosmos 2369 4.0 18:11:23 10° SSW 18:17:00 68° WNW 18:22:42 10° NNE
Cosmos 2278 4.0 18:11:56 10° SSW 18:17:35 72° WNW 18:23:17 10° NNE
ATLAS 2AS CENTAUR R/B 4.3 18:12:23 10° WSW 18:19:24 36° NW 18:26:44 10° NNE
FENGYUN 3A 4.1 18:16:25 10° SE 18:21:20 38° ENE 18:26:14 10° N
Cosmos 1536 Rocket 4.1 18:17:55 10° SSW 18:22:13 60° W 18:26:31 10° N
METEOR-M 4.1 18:17:18 10° SSE 18:22:34 66° ENE 18:27:52 10° N
ATLAS 3B R/B 2.5 18:16:14 10° NNW 18:22:52 86° ENE 18:29:22 10° SSE
CZ-4 R/B 1.6 18:20:10 10° S 18:23:59 69° W 18:27:55 10° NNW
Cosmos 1241 Rocket 4.5 18:17:55 10° SSW 18:24:18 82° ESE 18:30:28 11° NNE
Hubble Space Telescope 2.8 18:23:32 10° WSW 18:26:52 24° SSW 18:30:13 10° SE
Cosmos 158 Rocket 4.0 18:23:55 10° NNW 18:28:58 78° WSW 18:33:52 10° S
OAO 1 Rocket 4.4 18:23:48 10° W 18:29:09 88° N 18:32:35 23° E
USA 215 3.3 18:23:18 10° SE 18:29:51 86° SW 18:36:26 10° NW
Cosmos 2084 3.3 18:26:03 10° SSW 18:30:18 73° ESE 18:32:45 23° NE
DELTA 2 R/B (2) 4.2 18:31:41 10° WSW 18:34:24 71° SSE 18:35:43 35° E
Cosmos 1697 Rocket 2.7 18:29:44 10° SSW 18:35:23 85° WNW 18:41:04 10° NNE
Meteor 1-15 Rocket 4.3 18:30:29 10° N 18:36:23 66° E 18:42:12 10° SSE
Cosmos 1515 3.5 18:32:37 10° S 18:36:23 81° E 18:39:55 12° N
EO 1 Del DPAF 3.1 18:33:37 11° NNE 18:37:14 82° ESE 18:41:02 10° S
H-2A R/B 3.2 18:36:31 10° SSW 18:38:12 18° SSE 18:39:08 17° SE
SKYMED 2 3.7 18:34:38 10° N 18:38:59 77° WNW 18:43:18 10° SSW
NOSS 3-4 (A) 3.5 18:34:16 10° SSW 18:40:28 81° WNW 18:45:48 15° NNE
NOSS 3-4 (C) 3.5 18:34:21 10° SSW 18:40:34 82° WNW 18:45:51 16° NNE
Okean 2 3.2 18:40:33 10° S 18:44:39 83° E 18:48:05 14° N
DMSP B5D1-3 4.4 18:40:42 10° NNE 18:45:49 69° ESE 18:50:54 10° S
NOSS 2-2 (D) 3.7 18:45:15 10° S 18:48:55 42° ESE 18:49:14 41° ESE
Cosmos 2082 4.1 18:45:32 10° NNW 18:51:06 65° WSW 18:56:38 10° S
ERS-2 2.1 18:51:00 10° S 18:54:39 80° WSW 18:58:20 10° NNW
ISS -1.9 18:53:00 10° WNW 18:55:55 30° SW 18:58:50 10° SSE
SPOT 3 Rocket 3.4 18:52:37 10° SSE 18:57:48 87° ENE 19:03:00 10° NNW
Fregat R/B Cluster 11 3.9 18:55:40 10° SSW 19:00:29 54° ESE 19:00:32 54° ESE
FengYun 1-2 T 4.5 18:55:26 10° SE 19:00:44 45° ENE 19:06:06 10° N
Cosmos 2227 Rocket 3.6 18:57:31 10° NW 19:02:43 39° WSW 19:07:54 10° S
CENTAUR R/B 3.6 18:56:07 10° NNW 19:03:18 35° NE 19:04:35 34° ENE
NOSS 2-2 (E) 3.1 19:00:49 10° SSW 19:04:40 81° ESE 19:05:01 72° ENE
YAOGAN 1 4.4 19:03:42 10° SSW 19:07:32 31° W 19:11:25 10° NW
Cosmos 1892 Rocket 3.9 19:03:21 10° S 19:06:54 46° SE 19:06:54 46° SE
NOSS 2-2 (C) 3.2 19:07:30 10° SSW 19:11:09 78° SSE 19:11:09 78° SSE
Thor Agena Rocket 3.5 19:12:21 56° ENE 19:12:54 59° ESE 19:18:05 10° S
S3M 3.8 19:08:52 10° S 19:14:53 63° E 19:17:04 39° NNE
Cosmos 1980 Rocket 2.5 19:10:47 10° SSW 19:16:24 66° WNW 19:19:35 27° N
Cosmos 1066 Rocket 4.0 19:11:45 10° S 19:17:19 85° E 19:19:39 36° NNE
Cosmos 494 Rocket 3.8 19:15:17 10° NNW 19:20:34 79° ENE 19:23:05 32° SSE
Cosmos 2297 Rocket 4.3 19:24:32 10° NW 19:29:10 27° WSW 19:33:48 10° SSW
SJ 16-02 4.4 19:29:38 10° WNW 19:30:38 11° WNW 19:31:37 10° NW
Atlas Centaur 2 3.6 19:28:37 10° WSW 19:32:11 20° SSW 19:33:26 18° S
Gblst 52 Del rocket 4.4 19:27:45 10° NW 19:33:02 60° NNE 19:33:02 60° NNE
Lacrosse 5 rocket 3.4 19:31:57 10° SSW 19:33:24 21° S 19:33:24 21° S
Cosmos 2344 3.5 19:32:46 10° SSW 19:40:19 59° ESE 19:40:35 59° ESE
RESURS DK-1 3.9 19:41:13 10° SW 19:44:19 34° W 19:44:19 34° W
Cosmos 1553 Rocket 4.4 19:42:07 10° SSW 19:48:26 61° W 19:52:38 22° N
SL-16 R/B 3.2 19:51:59 10° SSW 19:55:26 39° SSW 19:55:26 39° SSW
Cosmos 2322 Rocket 3.4 19:57:08 10° SSW 20:00:14 35° SSW 20:00:14 35° SSW
CENTAUR R/B 4.0 20:46:28 10° NW 20:51:51 43° WNW 20:51:51 43° WNW
